KE5KZS Weather Reports


Display with metric or nautical units.
time (UTC)temp
F
wind
direction
speed
MPH
gust
MPH
rain 1hr
in
rain 24hr
in
rain mn
in
humidity
%
barometer
mb
20260902230017 98 45 2.0 5.0 0.00 0.00 0.00 45 1009.7
20260902225017 98 68 3.0 8.0 0.00 0.00 0.00 44 1009.8
20260902224017 98 90 2.0 4.0 0.00 0.00 0.00 44 1009.9
20260902223017 98 113 2.0 6.0 0.00 0.00 0.00 44 1010.0
20260902222017 99 45 3.0 10.0 0.00 0.00 0.00 43 1010.0
20260902221017 99 113 4.0 9.0 0.00 0.00 0.00 44 1010.1
20260902220037 99 90 3.0 8.0 0.00 0.00 0.00 44 1010.4
20260902215017 99 135 2.0 6.0 0.00 0.00 0.00 43 1010.4
20260902214017 99 135 3.0 8.0 0.00 0.00 0.00 43 1010.6
20260902213037 100 90 2.0 8.0 0.00 0.00 0.00 43 1010.5
20260902212017 99 113 3.0 10.0 0.00 0.00 0.00 41 1010.7
20260902211037 99 68 2.0 6.0 0.00 0.00 0.00 41 1010.7
20260902210017 99 90 2.0 9.0 0.00 0.00 0.00 42 1010.8
20260902205017 100 113 4.0 12.0 0.00 0.00 0.00 42 1011.0
20260902204017 100 23 4.0 8.0 0.00 0.00 0.00 42 1011.2
20260902203017 100 90 3.0 6.0 0.00 0.00 0.00 43 1011.4
20260902202017 100 68 3.0 8.0 0.00 0.00 0.00 44 1011.6
20260902201017 100 135 4.0 8.0 0.00 0.00 0.00 44 1011.6
20260902200017 99 23 3.0 9.0 0.00 0.00 0.00 43 1011.8
20260902195017 100 23 2.0 5.0 0.00 0.00 0.00 42 1011.8
20260902194017 100 113 3.0 9.0 0.00 0.00 0.00 43 1012.0
20260902193017 101 113 4.0 9.0 0.00 0.00 0.00 44 1012.1
20260902192017 100 23 2.0 6.0 0.00 0.00 0.00 45 1012.5
20260902191017 100 90 2.0 5.0 0.00 0.00 0.00 45 1012.6
20260902190037 100 113 3.0 10.0 0.00 0.00 0.00 46 1012.7
20260902185017 100 135 2.0 5.0 0.00 0.00 0.00 46 1012.8
20260902184057 100 135 2.0 4.0 0.00 0.00 0.00 48 1012.9
20260902183017 99 135 4.0 9.0 0.00 0.00 0.00 47 1013.1
20260902182017 99 113 2.0 7.0 0.00 0.00 0.00 48 1013.5
20260902181017 98 135 3.0 9.0 0.00 0.00 0.00 49 1013.7
20260902180017 97 90 3.0 6.0 0.00 0.00 0.00 49 1013.8
20260902175037 98 90 2.0 8.0 0.00 0.00 0.00 49 1014.1
20260902174017 98 203 3.0 8.0 0.00 0.00 0.00 49 1014.1
20260902173017 97 113 4.0 7.0 0.00 0.00 0.00 49 1014.3
20260902172017 96 113 3.0 8.0 0.00 0.00 0.00 50 1014.3
20260902171017 96 135 2.0 4.0 0.00 0.00 0.00 50 1014.5
20260902170017 95 135 2.0 8.0 0.00 0.00 0.00 52 1014.5
20260902165037 95 113 2.0 6.0 0.00 0.00 0.00 53 1014.7
20260902164017 95 68 2.0 7.0 0.00 0.00 0.00 54 1014.7
20260902163017 95 113 2.0 5.0 0.00 0.00 0.00 54 1014.8
20260902162037 95 113 2.0 4.0 0.00 0.00 0.00 53 1014.9
20260902161037 94 90 2.0 8.0 0.00 0.00 0.00 55 1014.9
20260902160037 94 158 2.0 5.0 0.00 0.00 0.00 54 1015.0
20260902155017 93 135 2.0 8.0 0.00 0.00 0.00 54 1014.9
20260902154017 93 113 2.0 6.0 0.00 0.00 0.00 55 1015.0
20260902153017 92 158 2.0 6.0 0.00 0.00 0.00 57 1014.8
20260902152017 92 90 2.0 6.0 0.00 0.00 0.00 59 1014.9
20260902151017 92 203 2.0 6.0 0.00 0.00 0.00 59 1014.7
20260902150017 91 135 2.0 4.0 0.00 0.00 0.00 60 1014.7
20260902145017 90 113 3.0 5.0 0.00 0.00 0.00 61 1014.7
20260902144037 89 135 2.0 4.0 0.00 0.00 0.00 62 1014.7
20260902143017 89 135 2.0 4.0 0.00 0.00 0.00 63 1014.8
20260902142057 88 158 2.0 7.0 0.00 0.00 0.00 64 1014.8
20260902141017 88 158 3.0 7.0 0.00 0.00 0.00 65 1014.9
20260902140017 87 135 3.0 7.0 0.00 0.00 0.00 66 1014.8
20260902135017 86 158 4.0 9.0 0.00 0.00 0.00 66 1014.8
20260902134017 86 158 3.0 6.0 0.00 0.00 0.00 67 1014.7
20260902133017 85 135 2.0 4.0 0.00 0.00 0.00 69 1014.6
20260902132017 84 113 1.0 3.0 0.00 0.00 0.00 71 1014.6
20260902131017 82 0.0 2.0 0.00 0.00 0.00 73 1014.5
20260902130017 81 113 1.0 2.0 0.00 0.00 0.00 76 1014.4
20260902125017 80 113 1.0 2.0 0.00 0.00 0.00 77 1014.3
20260902124017 79 0.0 2.0 0.00 0.00 0.00 77 1014.1
20260902123017 79 0.0 2.0 0.00 0.00 0.00 77 1014.0
20260902122017 79 0.0 2.0 0.00 0.00 0.00 77 1013.9
20260902121017 79 113 1.0 2.0 0.00 0.00 0.00 76 1013.8
20260902120017 79 0.0 1.0 0.00 0.00 0.00 76 1013.8
20260902115017 79 0.0 1.0 0.00 0.00 0.00 76 1013.8
20260902114017 79 113 1.0 3.0 0.00 0.00 0.00 75 1013.8
20260902113017 79 0.0 1.0 0.00 0.00 0.00 75 1013.9
20260902112017 79 113 1.0 2.0 0.00 0.00 0.00 75 1014.0
20260902111017 79 113 2.0 3.0 0.00 0.00 0.00 75 1013.9
20260902110017 79 158 1.0 4.0 0.00 0.00 0.00 75 1013.9
20260902105017 79 158 1.0 4.0 0.00 0.00 0.00 75 1013.8
20260902104017 79 0.0 2.0 0.00 0.00 0.00 75 1013.8
20260902103017 80 0.0 0.0 0.00 0.00 0.00 74 1013.8
20260902102017 80 0.0 0.0 0.00 0.00 0.00 74 1013.9
20260902101037 80 0.0 0.0 0.00 0.00 0.00 72 1013.9
20260902100017 81 0.0 0.0 0.00 0.00 0.00 72 1013.8
20260902095017 81 0.0 0.0 0.00 0.00 0.00 71 1013.7
20260902094017 82 0.0 1.0 0.00 0.00 0.00 70 1013.7
20260902093017 82 158 1.0 2.0 0.00 0.00 0.00 70 1013.8
20260902092017 82 0.0 2.0 0.00 0.00 0.00 70 1013.9
20260902091017 82 158 1.0 4.0 0.00 0.00 0.00 69 1013.9
20260902090017 83 158 1.0 5.0 0.00 0.00 0.00 69 1013.8
20260902085037 83 158 1.0 4.0 0.00 0.00 0.00 69 1013.8
20260902084017 83 158 1.0 4.0 0.00 0.00 0.00 68 1013.8
20260902083017 83 158 1.0 5.0 0.00 0.00 0.00 68 1013.9
20260902082017 84 158 2.0 5.0 0.00 0.00 0.00 68 1013.9
20260902081017 84 158 2.0 5.0 0.00 0.00 0.00 67 1013.9
20260902080037 84 158 2.0 5.0 0.00 0.00 0.00 67 1013.9
20260902075017 85 158 1.0 3.0 0.00 0.00 0.00 67 1014.0
20260902074017 85 158 2.0 5.0 0.00 0.00 0.00 66 1014.1
20260902073057 85 135 2.0 4.0 0.00 0.00 0.00 65 1014.1
20260902072017 86 135 2.0 5.0 0.00 0.00 0.00 65 1014.1
20260902071037 86 158 2.0 5.0 0.00 0.00 0.00 64 1014.0
20260902070017 86 158 3.0 7.0 0.00 0.00 0.00 64 1014.1
20260902065017 86 203 2.0 6.0 0.00 0.00 0.00 64 1014.2
20260902064017 86 158 3.0 5.0 0.00 0.00 0.00 64 1013.9
20260902063017 86 135 2.0 3.0 0.00 0.00 0.00 63 1013.9
20260902062017 87 135 2.0 4.0 0.00 0.00 0.00 63 1013.8
20260902061037 87 135 2.0 6.0 0.00 0.00 0.00 62 1013.8
20260902060017 87 135 3.0 6.0 0.00 0.00 0.00 62 1013.6
20260902055017 87 135 3.0 6.0 0.00 0.00 0.00 61 1013.5
20260902054037 88 180 3.0 8.0 0.00 0.00 0.00 60 1013.4
20260902053037 88 135 4.0 7.0 0.00 0.00 0.00 60 1013.4
20260902052037 89 135 3.0 6.0 0.00 0.00 0.00 59 1013.4
20260902051017 89 135 4.0 9.0 0.00 0.00 0.00 58 1013.3
20260902050017 89 113 4.0 9.0 0.00 0.00 0.00 58 1013.3
20260902045015 88 113 2.0 9.0 0.00 0.00 0.00 59 1013.2
20260902044015 88 0.0 2.0 0.00 0.00 0.00 59 1013.2
20260902043035 89 0.0 1.0 0.00 0.00 0.00 58 1013.2
20260902042015 89 0.0 1.0 0.00 0.00 0.00 57 1013.0
20260902041015 90 113 1.0 3.0 0.00 0.00 0.00 56 1013.0
20260902040015 90 113 1.0 3.0 0.00 0.00 0.00 56 1013.0
20260902035015 90 135 2.0 6.0 0.00 0.00 0.00 56 1012.9
20260902034015 90 135 2.0 4.0 0.00 0.00 0.00 56 1012.9
20260902033015 90 135 1.0 3.0 0.00 0.00 0.00 55 1012.9
20260902032016 90 135 2.0 3.0 0.00 0.00 0.00 55 1012.9
20260902031015 90 135 1.0 4.0 0.00 0.00 0.00 55 1012.8
20260902030015 91 135 1.0 3.0 0.00 0.00 0.00 54 1012.5
20260902025015 91 135 1.0 3.0 0.00 0.00 0.00 54 1012.4
20260902024015 91 135 1.0 3.0 0.00 0.00 0.00 53 1012.3
20260902023015 91 135 1.0 3.0 0.00 0.00 0.00 53 1012.2
20260902022035 92 135 1.0 3.0 0.00 0.00 0.00 52 1012.0
20260902021055 92 113 2.0 3.0 0.00 0.00 0.00 52 1011.9
20260902020035 92 113 2.0 6.0 0.00 0.00 0.00 51 1011.9
20260902015015 92 113 2.0 7.0 0.00 0.00 0.00 51 1011.6
20260902014015 92 113 2.0 4.0 0.00 0.00 0.00 50 1011.5
20260902013015 93 135 2.0 6.0 0.00 0.00 0.00 50 1011.6
20260902012015 93 113 2.0 6.0 0.00 0.00 0.00 49 1011.2
20260902011016 94 113 2.0 6.0 0.00 0.00 0.00 48 1011.2
20260902010015 94 113 2.0 4.0 0.00 0.00 0.00 47 1011.2
20260902005015 95 113 2.0 3.0 0.00 0.00 0.00 47 1011.2
20260902004015 95 113 3.0 9.0 0.00 0.00 0.00 46 1011.3
20260902003015 96 113 3.0 8.0 0.00 0.00 0.00 46 1011.4
20260902002015 96 113 3.0 9.0 0.00 0.00 0.00 46 1011.4
20260902001035 96 135 3.0 9.0 0.00 0.00 0.00 45 1011.5
20260902000015 97 113 3.0 8.0 0.00 0.00 0.00 45 1011.5
20260901235015 97 113 4.0 8.0 0.00 0.00 0.00 44 1011.5
20260901234015 98 45 2.0 6.0 0.00 0.00 0.00 44 1011.5
20260901233016 98 113 4.0 9.0 0.00 0.00 0.00 44 1011.6
20260901232016 98 90 3.0 9.0 0.00 0.00 0.00 44 1011.8
20260901231015 98 113 3.0 8.0 0.00 0.00 0.00 43 1011.7